Content
SEND FEEDBACK

Daily
Averages
Monthly
Summary
United States of America

GRANITE, COLORADO


Home > North America > United States > Colorado
Elevation: 2806 meters     Latitude: 39 05N     Longitude: 106 19W

WEATHER
 
SELECT A DAY
Number of Records: 193,045;   Date Range: 1/4/95 - 10/23/14
 
SHARE

PRINT THIS DATA

[ ← Previous Day ]
WEATHER ALMANAC - 13 FEBRUARY, 2013
[ Next Day → ]
[ °F ]   °C
Weather ElementAverageHighLow
Temperature-11.7 °C-6 °C (2:21 pm) (11:00 am)
Dewpoint-15.2 °C-11.7 °C (4:53 pm)-19 °C (7:10 am)
Humidity75.5 %88 % (2:53 am)58 % (11:13 am)
Barometer990.5 hPa1024 hPa (7:53 am) (7:00 pm)
Wind Speed14.8 km/h35.2 km/h (11:13 am)
Wind Gust50.1 km/h (11:53 am)
Weather ElementAverage
Visibility15.4 km
Wind DirectionSSE (161.1 °)

Weather ElementTotal
Precipitation---
Heating Degree Days30.2 (Base 18.3)
Averaged from 35 records on 13 February, 2013
WEATHER CONDITIONS BREAKOUT
WIND DIRECTION BREAKOUT
WEATHER BY HOUR - 13 FEBRUARY, 2013
[ °F ]   °C
Local TimeTemperatureDewpointHumidityBarometerVisibilityWind DirectionWind SpeedGust SpeedPrecipitationEventsConditions
1:53 AM-14.4 °C-16.7 °C83 %1020 hPa14.5 kmNE (50°)5.6 km/hOvercast
2:29 AM-16 °C-18 °C85 %1017.6 hPa16.1 kmNorth (10°)7.4 km/hOvercast
2:51 AM-16 °C-18 °C85 %1017.6 hPa16.1 kmNE (50°)7.4 km/hOvercast
2:53 AM-16.7 °C-18.3 °C88 %1020.3 hPa16.1 kmENE (60°)7.4 km/hOvercast
3:07 AM-16 °C-18 °C85 %1017.6 hPa16.1 kmNNE (20°)11.1 km/hOvercast
3:53 AM-15 °C-17.8 °C80 %1019.6 hPa16.1 kmNorth (350°)18.5 km/hOvercast
4:10 AM-15 °C-17 °C85 %1017.6 hPa16.1 kmNorth (350°)16.7 km/hOvercast
4:53 AM-16.1 °C-18.3 °C84 %1021 hPa16.1 kmEast (80°)7.4 km/hOvercast
5:53 AM-16.7 °C-18.3 °C88 %1022.4 hPa16.1 kmNNE (30°)11.1 km/hOvercast
6:53 AM-16.7 °C-18.9 °C83 %1023 hPa16.1 kmNE (50°)9.3 km/hOvercast
7:10 AM-17 °C-19 °C85 %1017.3 hPa16.1 kmNE (50°)9.3 km/hScattered Clouds
7:53 AM-15 °C-17.2 °C84 %1024 hPa16.1 kmNorth (10°)14.8 km/hPartly Cloudy
8:53 AM-10.6 °C-15.6 °C67 %1022.4 hPa16.1 kmNNW (340°)13 km/hClear
9:53 AM-8.9 °C-15 °C62 %1021.3 hPa16.1 kmNW (320°)14.8 km/hClear
10:53 AM-7.8 °C-14.4 °C60 %1020.3 hPa16.1 kmNW (310°)20.4 km/h40.7 km/hMostly Cloudy
11:00 AM-17.8 °C-17.8 °CNorth
11:13 AM-7 °C-14 °C58 %1017.3 hPa16.1 kmWNW (300°)35.2 km/h46.3 km/hScattered Clouds
11:53 AM-7.8 °C-13.3 °C65 %1020 hPa16.1 kmWNW (300°)35.2 km/h50.1 km/h0 mmClear
12:32 PM-7 °C-13 °C63 %1016.6 hPa16.1 kmNW (310°)29.6 km/h46.3 km/hMostly Cloudy
12:53 PM-7.2 °C-12.8 °C65 %1019.3 hPa16.1 kmWNW (300°)27.8 km/h44.4 km/hMostly Cloudy
1:53 PM-6.1 °C-12.2 °C63 %1017.3 hPa16.1 kmNW (320°)22.2 km/h31.5 km/h0 mmOvercast
2:21 PM-6 °C-12 °C63 %1016.3 hPa11.3 kmNNW (330°)22.2 km/h37 km/h0 mmSnowLight Snow
2:53 PM-7.2 °C-12.2 °C68 %1019 hPa11.3 kmNW (310°)24.1 km/h40.7 km/h0 mmSnowLight Snow
3:53 PM-6.7 °C-12.2 °C65 %1018.3 hPa11.3 kmNW (320°)25.9 km/h46.3 km/h0 mmSnowLight Snow
4:53 PM-6.7 °C-11.7 °C68 %1019 hPa14.5 kmNW (310°)27.8 km/h44.4 km/h0 mmOvercast
5:53 PM-7.8 °C-12.2 °C71 %1020.3 hPa12.9 kmNW (310°)24.1 km/h0 mmSnowLight Snow
6:38 PM-9 °C-13 °C73 %1017.9 hPa14.5 kmESE (120°)7.4 km/h0 mmScattered Clouds
6:53 PM-9.4 °C-12.8 °C77 %1021.7 hPa16.1 kmESE (120°)7.4 km/h0 mmPartly Cloudy
7:53 PM-11.1 °C-14.4 °C77 %1022.4 hPa16.1 kmENE (60°)5.6 km/hOvercast
8:53 PM-10.6 °C-13.9 °C77 %1020.3 hPa16.1 kmVariable7.4 km/hOvercast
9:40 PM-12 °C-14 °C85 %1018.3 hPa16.1 kmNE (40°)7.4 km/hOvercast
9:53 PM-12.2 °C-14.4 °C84 %1020.3 hPa16.1 kmNE (40°)7.4 km/hOvercast
10:51 PM-14 °C-16 °C85 %1018.3 hPa16.1 kmCalmPartly Cloudy
10:53 PM-13.3 °C-16.1 °C80 %1020.3 hPa16.1 kmENE (70°)5.6 km/hPartly Cloudy
11:53 PM-11.7 °C-15 °C77 %1019.3 hPa16.1 kmVariable5.6 km/hPartly Cloudy
Hourly data recorded from KLXV, located 0 kilometers away from Granite, Colorado







STORIES FROM OUR PARTNERS